STARLINK-3652, 51991

Orbit data source: Space-Track

STARLINK-3652, 51991 is a payload satellite owned by SpaceX/Seattle (US) in LEO that was launched on Wed, 09 Mar 2022 UTC via an FALCON 9 launch vehicle from the Air Force Eastern Test Range (AFETR). Payload-class satellites include a variety of spacecraft equipped with specific instruments for various scientific and technological missions. These include communications satellites like Starlink; space stations such as the ISS; scientific satellites like the Hubble; Earth observation satellites from companies like Planet Labs, Umbra, and HawkEye 360; GPS; miniature CubeSats for education and research; and military/defense satellites.

Loading next visibility...
Identifier
51991, 2022-025AM
Orbit
LEO
Country
Flag of USUS
Related business
Manufacturer
SpaceX/Seattle
Mission
Operational Commercial Communications
Bus & Motor
STARLINK, Unknown motor
Mass
297 kg wet, ~275 kg dry
Launch date (UTC)
2022-03-09 (4 years ago)
Launch vehicle
FALCON 9
Launch site
Air Force Eastern Test Range (AFETR)
Object type
Payload
Rocket body
Debris
Shape & HBR
Box + 1 Pan, 10.1 m
Radar Cross Section
13.562 m², Large (>1 m²)

Expand to show TLE details & history
Last TLE update: 20 hours ago

TLE from 20 hours ago
0 STARLINK-3652
1 51991U 22025AM  25346.53172840 -.00001336  00000-0 -65876-4 0  9997
2 51991  53.2174  70.3854 0001209  88.4890 271.6241 15.08822270207901
Epoch: 2025-12-12T12:45Z
TLE epoch observation values (Epoch: 2025-12-12T12:45:41.333Z)
Latitude
-0.00001°
Longitude
157.49117°
Altitude
540.671 km
Speed
7.593 km/s
True Right ascension
04h 41m 32s
True Declination
0° 00' 00"
Sunlit
Object was in full shadow at epoch
Visualization orbit readout
Latitude
Unknown
Longitude
Unknown
Altitude
Unknown
Speed
Unknown
Apparent Right ascension
Unknown
Apparent Declination
Unknown
Sunlit
N/A
Visualization observer readout
Local Sidereal Time
07:35:02
Azimuth
Unknown
Elevation
Unknown
Doppler factor
Unknown
Orbital elements
Apogee altitude
540.879 km
Perigee altitude
539.206 km
Semi-major axis
6,918.18 km
Eccentricity
0.00012
Inclination
53.2174°
RAAN
70.3854°
Arg. of periapsis
88.489°
True anomaly
271.61025°
Mean anomaly
271.6241°
Eccentric anomaly
271.61718°
Mean motion
3.77186 °/min
Orbital period
95.44 mins
BSTAR
-0.000065876
Loading maneuver chart data...
Computing Atmospheric mass density...
Loading historical data...
Loading historical data...
Loading historical data...
Loading historical data...
Loading historical data...
Loading historical data...
Loading historical data...

Documentation

Showing up to 5 results
|